User: anonymous   Login
Location: Carrières
(48.9495°N, 2.0407°E)
Time: 01:49:30
(UTC+00:00)
Language:

Cosmos 1606 Rocket - Orbit

View from above orbital plane
View from above orbital plane
View from above satellite
View from above satellite

Ground track
Ground track

The orbit data is extracted from the following two-line orbital elements,

1 15370U 84111B   24144.49923634  .00001002  00000-0  11479-3 0  9994
2 15370  82.5145 152.6134 0019948 344.6759  15.3849 14.84831296118606
Epoch (UTC): 23 May 2024 11:58:54
Eccentricity: 0.0019948
inclination: 82.5145°
perigee height: 600 km
apogee height: 628 km
right ascension of ascending node: 152.6134°
argument of perigee: 344.6759°
revolutions per day: 14.84831296
mean anomaly at epoch: 15.3849°
orbit number at epoch: 11860

The dashed part of the orbit path shows where the satellite is in the earth's shadow,  

DLR